Home   Weather   Blackpool   Past weeks

Flag for United Kingdom Past Weather in Blackpool, England, United Kingdom — Yesterday and Last 2 Weeks

Now
46 °F

Scattered clouds.


Feels Like: 39 °F
Forecast: 40 / 48 °F
Wind: 18 mph from Northwest

Location: Blackpool Airport

Current Time: Apr 25, 2017 at 2:03:22 pm

Latest Report: Apr 25, 2017 at 1:20 pm


Visibility: N/A

Pressure: 30.01 "Hg

Humidity: 57%

Dew Point: 32 °F

Location of BlackpoolLocation

Past Weather in Blackpool — Graph

°F

Blackpool Temperature Yesterday

Maximum temperature yesterday: 52 °F (at 12:50 pm)
Minimum temperature yesterday: 43 °F (at 7:50 pm)
Average temperature yesterday: 48 °F

High & Low Weather Summary for the Past Weeks

 TemperatureHumidityPressure
High54 °F (Apr 20, 10:50 am)100% (Apr 14, 7:20 am)30.60 "Hg (Apr 14, 7:20 am)
Low36 °F (Apr 25, 6:20 am)46% (Apr 24, 4:50 pm)29.89 "Hg (Apr 14, 4:20 pm)
Average49 °F77%30.24 "Hg
* Reported Apr 10 12:20 pm — Apr 25 12:50 pm, Blackpool, Weather by CustomWeather, © 2017

Note: Actual official high and low records may vary slightly from our data, if they occured in-between our weather recording intervals... More about our weather records

Advertising

Blackpool Weather History for the Previous 24 Hours

Scroll right to see more
 ConditionsComfort  
Time TempWeatherWind HumidityBarometerVisibility
12:50 pm
Tue, Apr 25
46 °FPartly sunny.20 mph57%30.01 "HgN/A
12:20 pm46 °FScattered showers. Partly sunny.21 mph53%30.01 "HgN/A
11:50 am46 °FScattered showers. Scattered clouds.18 mph57%30.01 "HgN/A
11:20 am46 °FScattered clouds.21 mph62%30.01 "HgN/A
10:50 am45 °FScattered clouds.22 mph61%30.01 "HgN/A
10:20 am45 °FPassing clouds.20 mph61%30.01 "HgN/A
9:50 am45 °FPassing clouds.18 mph61%30.01 "HgN/A
9:20 am43 °FPassing clouds.17 mph66%30.01 "HgN/A
8:50 am41 °FPassing clouds.20 mph70%30.01 "HgN/A
8:20 am41 °FPassing clouds.16 mph66%29.98 "HgN/A
7:50 am41 °FPassing clouds.13 mph70%29.98 "HgN/A
7:20 am39 °FPassing clouds.6 mph75%29.98 "HgN/A
6:50 am37 °FPassing clouds.6 mph81%29.98 "HgN/A
6:20 am36 °FPassing clouds.7 mph81%29.98 "HgN/A
8:50 pm
Mon, Apr 24
43 °FPassing clouds.28 mph53%29.95 "HgN/A
8:20 pm43 °FPassing clouds.26 mph57%29.95 "HgN/A
7:50 pm43 °FPassing clouds.30 mph61%29.95 "HgN/A
7:20 pm45 °FPassing clouds.26 mph57%29.95 "HgN/A
6:50 pm45 °FScattered clouds.25 mph53%29.95 "HgN/A
6:20 pm46 °FPassing clouds.30 mph50%29.95 "HgN/A
5:50 pm46 °FPassing clouds.28 mph50%29.95 "HgN/A
5:20 pm48 °FPassing clouds.29 mph46%29.95 "HgN/A
4:50 pm48 °FPassing clouds.30 mph46%29.95 "HgN/A
4:20 pm48 °FPassing clouds.25 mph54%29.95 "HgN/A
3:50 pm48 °FScattered clouds.25 mph54%29.98 "HgN/A
3:20 pm48 °FScattered clouds.22 mph58%29.98 "HgN/A
2:50 pm48 °FScattered clouds.20 mph62%29.98 "HgN/A
2:20 pm48 °FScattered clouds.20 mph58%29.98 "HgN/A
Weather by CustomWeather, © 2017

See weather overviewHow to use our weather pages